Location: Vancouver
(49.2500°N, 123.1330°W)
Time: 04:46:28
(UTC-08:00)

ERS-2 - Visible Passes

Search period start: 21 December 2014 00:00
Search period end: 31 December 2014 00:00
Orbit: 524 x 530 km, 98.5° (Epoch: 20 December)

Date Brightness Start Highest point End Pass type
(mag) Time Alt. Az. Time Alt. Az. Time Alt. Az.
21 Dec 4.7 06:54:33 10° ESE 06:57:15 19° ENE 06:59:59 10° NNE visible
22 Dec 4.9 06:43:55 10° E 06:46:07 15° ENE 06:48:18 10° NNE visible
23 Dec 5.1 06:33:35 10° ENE 06:34:58 12° ENE 06:36:20 10° NE visible
27 Dec 4.0 07:19:55 10° SE 07:23:16 30° ENE 07:26:39 10° N visible
28 Dec 4.4 07:08:53 10° ESE 07:11:56 23° ENE 07:15:01 10° N visible
29 Dec 4.8 06:57:56 10° ESE 07:00:36 18° ENE 07:03:16 10° NNE visible
30 Dec 5.0 06:47:09 10° E 06:49:15 15° ENE 06:51:23 10° NNE visible
